Location: ?
(35.6144°N, 139.6873°E)
Time: 14:25:02
(UTC+00:00)

Cosmos 2278 Rocket - Pass Details

Date: 23 May 2024
Orbit: 840 x 846 km, 71.0° (Epoch: 15 June)

Event Time Altitude Azimuth Distance (km) Brightness Sun altitude
Rises 11:08:03 0° 322° (NW) 3,407 7.1 -14.9°
Reaches altitude 10° 11:11:04 10° 307° (NW) 2,466 6.0 -15.3°
Maximum altitude 11:15:10 21° 260° (W) 1,808 4.4 -16.0°
Drops below altitude 10° 11:19:15 10° 213° (SSW) 2,452 4.5 -16.6°
Sets 11:22:15 0° 197° (SSW) 3,381 5.1 -17.0°
